[[{"header":{"parameterUnit":"m.s-1","parameterCategory":1,"la1":30.2991,"la2":30.254,"lo1":-89.0895,"lo2":-89.0444,"dy":0.0017,"dx":0.0017,"nx":28,"ny":28,"refTime":"2023-10-29T03:00:00:Z","depth":0,"parameterNumber":2,"parameterNumberName":"U-component_of_WINDS"},"data":[0,0,0,0,0,0,0,0,0,0,0,0,0,0,0,0,0,0,0,0,0,0,0,0,0,0,0,0,0,0,0,0,0,0,0,0,0,0,0,0,0,0,0,0,0,0,0,0,0,0,0,0,0,0,0,0,0,0,-1.2699,-1.2698,0,-1.2657,-1.2657,-1.2656,-1.2626,-1.2626,-1.2626,-1.2626,-1.2581,-1.258,-1.2579,0,0,0,0,0,0,0,0,0,0,0,0,0,-1.2751,-1.275,-1.2699,-1.2698,-1.2698,-1.2657,-1.2657,-1.2656,-1.2626,-1.2626,-1.2626,-1.2626,-1.2582,-1.258,-1.2579,0,0,0,0,0,0,0,0,0,0,0,0,0,-1.2721,-1.275,-1.2699,-1.2678,-1.2676,-1.2657,-1.2657,-1.2656,-1.2626,-1.2626,-1.2626,-1.2625,-1.2582,-1.2581,-1.2579,-1.2578,0,0,-1.2575,-1.2574,0,0,0,0,0,0,0,0,-1.2722,-1.2719,-1.2682,-1.2679,-1.2677,-1.2647,-1.2659,-1.263,-1.2627,-1.2645,-1.2626,-1.2625,-1.2603,-1.26,-1.2593,-1.2575,-1.2574,-1.2575,-1.2574,-1.2573,-1.2573,0,0,0,0,0,0,0,-1.2725,-1.272,-1.2682,-1.2681,-1.2678,-1.267,-1.2666,-1.2653,-1.2627,-1.2643,-1.2641,-1.2637,-1.2602,-1.2594,-1.2592,-1.2573,-1.2575,-1.2573,-1.2573,-1.2572,-1.2552,-1.2552,0,0,0,0,0,0,-1.273,-1.2722,-1.2684,-1.2681,-1.2699,-1.267,-1.2664,-1.2657,-1.2627,-1.2622,-1.2637,-1.2636,-1.2597,-1.2593,-1.259,-1.2586,-1.2573,-1.2572,-1.2571,-1.2552,-1.2552,-1.2552,0,0,0,0,0,0,-1.2731,-1.2727,-1.2685,-1.2701,-1.2695,-1.2669,-1.2661,-1.2656,-1.2649,-1.2622,-1.2617,-1.2635,-1.2597,-1.2592,-1.2581,-1.2584,-1.2571,-1.257,-1.2551,-1.2552,-1.2552,-1.2578,0,0,0,0,0,0,-1.2733,-1.2728,-1.2727,-1.2701,-1.2694,-1.2677,-1.2661,-1.2655,-1.2646,-1.2644,-1.2618,-1.2613,-1.2596,-1.2583,-1.258,-1.2582,-1.2569,-1.2551,-1.2551,-1.2552,-1.2577,-1.2579,-1.2581,0,0,0,0,0,-1.2735,-1.2735,-1.2727,-1.2723,-1.2693,-1.2678,-1.2674,-1.2654,-1.2647,-1.2646,-1.2629,-1.2614,-1.2585,-1.2582,-1.2578,-1.258,-1.2551,-1.2551,-1.2552,-1.2576,-1.2579,-1.2581,0,0,0,0,0,0,-1.2761,-1.2732,-1.2722,-1.2714,-1.2699,-1.2673,-1.2671,-1.2658,-1.2643,-1.2642,-1.2617,-1.2612,-1.2603,-1.259,-1.2589,-1.2577,-1.2566,-1.2566,-1.2585,-1.2588,-1.259,-1.2593,-1.2568,0,0,0,0,0,-1.2767,-1.2757,-1.2731,-1.2727,-1.272,-1.2697,-1.2689,-1.2675,-1.2658,-1.2651,-1.2633,-1.2616,-1.2603,-1.2595,-1.2581,-1.2575,-1.2569,-1.2574,-1.2576,-1.2579,-1.2578,-1.2574,-1.2576,-1.2555,-1.2555,-1.2555,0,0,-1.2776,-1.2759,-1.2754,-1.2732,-1.2718,-1.2708,-1.2691,-1.2681,-1.2673,-1.2649,-1.2638,-1.2624,-1.2604,-1.2595,-1.2591,-1.2584,-1.2583,-1.2579,-1.2581,-1.258,-1.2575,-1.2577,-1.2579,-1.2555,-1.2555,-1.2555,0,0,-1.279,-1.2776,-1.2771,-1.2757,-1.2737,-1.2722,-1.2721,-1.2697,-1.2687,-1.2675,-1.2657,-1.2647,-1.2625,-1.2612,-1.2602,-1.2611,-1.2597,-1.2607,-1.2619,-1.2615,-1.2616,-1.2618,-1.262,-1.2622,-1.2607,-1.2607,-1.2607,0,-1.2804,-1.2789,-1.2769,-1.2761,-1.2751,-1.273,-1.2724,-1.2712,-1.2688,-1.2682,-1.2676,-1.2648,-1.2633,-1.262,-1.2623,-1.2616,-1.2613,-1.2609,-1.2618,-1.2619,-1.262,-1.2622,-1.2623,-1.2608,-1.2608,-1.2608,-1.2608,0,-1.2808,-1.2798,-1.2796,-1.2774,-1.2765,-1.2758,-1.2736,-1.2729,-1.2716,-1.2702,-1.269,-1.2671,-1.2654,-1.265,-1.2637,-1.2636,-1.2633,-1.2623,-1.2611,-1.2624,-1.2625,-1.2626,-1.261,-1.261,-1.2609,-1.2609,0,0,-1.2836,-1.2804,-1.2803,-1.2793,-1.277,-1.2761,-1.2753,-1.2737,-1.2731,-1.2715,-1.2707,-1.269,-1.268,-1.2669,-1.2655,-1.2652,-1.2659,-1.2642,-1.2641,-1.2645,-1.2656,-1.2664,-1.2665,-1.2651,-1.2651,-1.2651,-1.2658,0,-1.2845,-1.2829,-1.2812,-1.2802,-1.2792,-1.2773,-1.2765,-1.275,-1.2737,-1.2726,-1.2711,-1.2698,-1.2687,-1.268,-1.2676,-1.2659,-1.2661,-1.2659,-1.2642,-1.2642,-1.2647,-1.2666,-1.2673,-1.2681,-1.2658,-1.2659,-1.2659,0,-1.2853,-1.2839,-1.2829,-1.2807,-1.2802,-1.2796,-1.2779,-1.277,-1.2752,-1.2742,-1.273,-1.2715,-1.2705,-1.2696,-1.2682,-1.2681,-1.2673,-1.2664,-1.2664,-1.2661,-1.2651,-1.2663,-1.2683,-1.2684,-1.266,-1.2659,-1.2659,0,-1.2873,-1.2852,-1.2844,-1.2836,-1.281,-1.2806,-1.2795,-1.2777,-1.2768,-1.2753,-1.2747,-1.2732,-1.2723,-1.2711,-1.2692,-1.2687,-1.268,-1.2669,-1.2671,-1.2672,-1.267,-1.267,-1.2689,-1.2666,-1.2666,-1.2666,-1.2666,0,-1.2885,-1.2879,-1.2853,-1.2847,-1.284,-1.282,-1.2814,-1.2801,-1.2785,-1.2776,-1.2758,-1.275,-1.2726,-1.2716,-1.2701,-1.2691,-1.2687,-1.2679,-1.2675,-1.268,-1.2681,-1.2674,-1.2673,-1.2667,-1.2667,-1.2667,-1.2666,0,-1.2906,-1.2888,-1.2877,-1.2854,-1.2848,-1.2844,-1.2823,-1.2817,-1.2803,-1.2792,-1.2789,-1.2766,-1.2753,-1.2733,-1.2713,-1.2703,-1.2696,-1.269,-1.2702,-1.2699,-1.2702,-1.2702,-1.2716,-1.2717,-1.2695,-1.2696,-1.2696,0,-1.2914,-1.291,-1.2886,-1.2879,-1.2869,-1.2858,-1.2849,-1.283,-1.2821,-1.2801,-1.2797,-1.2782,-1.2769,-1.2749,-1.273,-1.2715,-1.2708,-1.2714,-1.2705,-1.2711,-1.2707,-1.2708,-1.2707,-1.2716,-1.2716,-1.2716,-1.2717,0,-1.2931,-1.2922,-1.291,-1.2896,-1.2886,-1.2873,-1.2859,-1.2855,-1.2832,-1.2823,-1.2809,-1.28,-1.278,-1.2765,-1.2748,-1.2736,-1.2722,-1.272,-1.2719,-1.2724,-1.2731,-1.2727,-1.2707,-1.2719,-1.2719,-1.2719,-1.2719,-1.2719,-1.2945,-1.294,-1.2923,-1.291,-1.2898,-1.2886,-1.2879,-1.2864,-1.2853,-1.2836,-1.2825,-1.2811,-1.2794,-1.2769,-1.2758,-1.2747,-1.2741,-1.2741,-1.2741,-1.2741,-1.2742,-1.2734,-1.2744,-1.2744,-1.2744,-1.2744,-1.2744,0,-1.296,-1.2948,-1.2937,-1.2919,-1.2909,-1.2898,-1.2883,-1.2875,-1.2864,-1.2849,-1.2837,-1.2821,-1.2807,-1.2788,-1.2772,-1.2767,-1.2761,-1.2764,-1.2764,-1.2761,-1.2749,-1.275,-1.277,-1.277,-1.277,-1.277,-1.277,-1.277,-1.2967,-1.2957,-1.2947,-1.2932,-1.292,-1.2907,-1.2899,-1.2888,-1.2876,-1.2859,-1.2848,-1.2836,-1.2819,-1.2802,-1.2789,-1.2783,-1.2778,-1.2783,-1.2776,-1.2764,-1.2762,-1.276,-1.2761,-1.2782,-1.2782,-1.2789,-1.2789,-1.2789]},{"header":{"parameterUnit":"m.s-1","parameterCategory":1,"la1":30.2991,"la2":30.254,"lo1":-89.0895,"lo2":-89.0444,"dy":0.0017,"dx":0.0017,"nx":28,"ny":28,"refTime":"2023-10-29T03:00:00:Z","depth":0,"parameterNumber":3,"parameterNumberName":"V-component_of_WINDS"},"data":[0,0,0,0,0,0,0,0,0,0,0,0,0,0,0,0,0,0,0,0,0,0,0,0,0,0,0,0,0,0,0,0,0,0,0,0,0,0,0,0,0,0,0,0,0,0,0,0,0,0,0,0,0,0,0,0,0,0,1.3947,1.3946,0,1.3904,1.3904,1.3903,1.3873,1.3872,1.3872,1.3872,1.3827,1.3826,1.3825,0,0,0,0,0,0,0,0,0,0,0,0,0,1.3999,1.3999,1.3947,1.3946,1.3946,1.3904,1.3904,1.3903,1.3873,1.3872,1.3872,1.3872,1.3827,1.3826,1.3825,0,0,0,0,0,0,0,0,0,0,0,0,0,1.3969,1.3998,1.3947,1.3925,1.3923,1.3904,1.3904,1.3903,1.3873,1.3872,1.3872,1.3872,1.3827,1.3826,1.3824,1.3823,0,0,1.382,1.3819,0,0,0,0,0,0,0,0,1.3971,1.3967,1.3929,1.3927,1.3924,1.3893,1.3906,1.3876,1.3873,1.3892,1.3872,1.3871,1.3849,1.3846,1.3838,1.3821,1.3819,1.382,1.3819,1.3818,1.3818,0,0,0,0,0,0,0,1.3973,1.3968,1.393,1.3929,1.3926,1.3917,1.3913,1.39,1.3873,1.389,1.3888,1.3883,1.3848,1.384,1.3837,1.3818,1.382,1.3819,1.3818,1.3817,1.3795,1.3796,0,0,0,0,0,0,1.3978,1.397,1.3931,1.3929,1.3947,1.3917,1.3911,1.3904,1.3873,1.3868,1.3884,1.3882,1.3843,1.3839,1.3835,1.3831,1.3818,1.3817,1.3816,1.3795,1.3796,1.3796,0,0,0,0,0,0,1.398,1.3975,1.3933,1.3949,1.3943,1.3916,1.3908,1.3903,1.3895,1.3868,1.3863,1.3881,1.3842,1.3838,1.3826,1.3829,1.3816,1.3815,1.3795,1.3795,1.3796,1.3822,0,0,0,0,0,0,1.3981,1.3976,1.3975,1.3949,1.3942,1.3925,1.3908,1.3902,1.3893,1.3891,1.3864,1.386,1.3842,1.3828,1.3825,1.3826,1.3814,1.3794,1.3795,1.3796,1.382,1.3823,1.3825,0,0,0,0,0,1.3983,1.3984,1.3976,1.3971,1.3941,1.3925,1.3921,1.3901,1.3894,1.3892,1.3875,1.386,1.3829,1.3827,1.3823,1.3824,1.3794,1.3795,1.3796,1.3819,1.3823,1.3825,0,0,0,0,0,0,1.4011,1.398,1.397,1.3963,1.3947,1.392,1.3918,1.3905,1.389,1.3888,1.3863,1.3858,1.3849,1.3835,1.3834,1.3821,1.381,1.381,1.383,1.3832,1.3835,1.3837,1.3813,0,0,0,0,0,1.4017,1.4007,1.398,1.3976,1.3969,1.3945,1.3937,1.3923,1.3905,1.3898,1.388,1.3862,1.3848,1.384,1.3825,1.3819,1.3812,1.3817,1.382,1.3822,1.3822,1.3816,1.3818,1.3798,1.3798,1.3798,0,0,1.4028,1.4009,1.4005,1.3981,1.3967,1.3957,1.3939,1.3929,1.3921,1.3896,1.3884,1.387,1.3849,1.384,1.3834,1.3828,1.3826,1.3823,1.3825,1.3823,1.3817,1.3819,1.382,1.3799,1.3799,1.3798,0,0,1.4042,1.4028,1.4022,1.4008,1.3987,1.3971,1.397,1.3945,1.3935,1.3923,1.3904,1.3893,1.387,1.3856,1.3845,1.3854,1.3839,1.385,1.3862,1.3856,1.3858,1.3859,1.3861,1.3862,1.385,1.385,1.385,0,1.4058,1.4042,1.4021,1.4012,1.4002,1.3979,1.3973,1.3961,1.3936,1.3929,1.3923,1.3893,1.3877,1.3864,1.3866,1.3858,1.3855,1.3852,1.3859,1.386,1.3861,1.3863,1.3864,1.3851,1.3851,1.3851,1.3851,0,1.4062,1.4051,1.4049,1.4026,1.4016,1.4008,1.3986,1.3978,1.3965,1.3949,1.3936,1.3917,1.3898,1.3894,1.3881,1.3878,1.3875,1.3864,1.3853,1.3865,1.3866,1.3866,1.3853,1.3853,1.3852,1.3852,0,0,1.4092,1.4058,1.4057,1.4046,1.4021,1.4012,1.4003,1.3985,1.3978,1.3962,1.3953,1.3934,1.3924,1.3912,1.3897,1.3893,1.39,1.3883,1.3882,1.3886,1.3894,1.3902,1.3903,1.389,1.389,1.3891,1.3896,0,1.4102,1.4085,1.4066,1.4055,1.4044,1.4023,1.4015,1.3999,1.3984,1.3972,1.3956,1.3942,1.3931,1.3923,1.3918,1.39,1.3901,1.39,1.3881,1.388,1.3886,1.3904,1.3911,1.3917,1.3896,1.3896,1.3896,0,1.411,1.4095,1.4084,1.4059,1.4054,1.4047,1.4029,1.4018,1.3999,1.3988,1.3975,1.3959,1.3948,1.3938,1.3922,1.3921,1.3912,1.3902,1.3902,1.3899,1.3889,1.39,1.3919,1.3919,1.3897,1.3897,1.3897,0,1.4132,1.4109,1.4099,1.409,1.4062,1.4057,1.4045,1.4025,1.4015,1.3999,1.3992,1.3975,1.3965,1.3952,1.3931,1.3926,1.3916,1.3905,1.3906,1.3907,1.3904,1.3905,1.3922,1.3901,1.3901,1.3901,1.3901,0,1.4144,1.4138,1.4108,1.4102,1.4094,1.4072,1.4064,1.405,1.4033,1.4023,1.4003,1.3994,1.3968,1.3955,1.3939,1.3927,1.3923,1.3914,1.3909,1.3915,1.3916,1.3908,1.3907,1.3901,1.3901,1.3901,1.3901,0,1.4167,1.4147,1.4135,1.4109,1.4102,1.4097,1.4074,1.4067,1.4051,1.4039,1.4034,1.401,1.3994,1.3972,1.395,1.3939,1.3929,1.3922,1.3936,1.3933,1.3935,1.3935,1.3946,1.3946,1.3927,1.3927,1.3927,0,1.4176,1.417,1.4144,1.4136,1.4124,1.4112,1.4102,1.408,1.407,1.4047,1.4042,1.4025,1.401,1.3986,1.3965,1.3948,1.394,1.3946,1.3937,1.3943,1.3939,1.3939,1.3938,1.3947,1.3948,1.3948,1.3948,0,1.4193,1.4183,1.4169,1.4152,1.4141,1.4126,1.4111,1.4105,1.408,1.407,1.4054,1.4042,1.4019,1.4002,1.3982,1.3968,1.3954,1.3951,1.395,1.3955,1.3963,1.3958,1.394,1.3951,1.395,1.395,1.395,1.395,1.4208,1.4201,1.4182,1.4167,1.4153,1.4139,1.4131,1.4114,1.41,1.408,1.4068,1.4052,1.4032,1.4004,1.3991,1.3978,1.3972,1.3971,1.397,1.397,1.3972,1.3966,1.3974,1.3974,1.3974,1.3974,1.3974,0,1.4223,1.4209,1.4196,1.4175,1.4163,1.4151,1.4133,1.4124,1.411,1.4093,1.4079,1.406,1.4043,1.4022,1.4003,1.3997,1.399,1.3993,1.3992,1.3989,1.3978,1.3981,1.3999,1.3999,1.3999,1.3999,1.3999,1.3999,1.4229,1.4218,1.4206,1.4187,1.4173,1.4158,1.4148,1.4135,1.4121,1.4101,1.4087,1.4074,1.4054,1.4034,1.4018,1.4012,1.4006,1.4011,1.4002,1.3992,1.399,1.3988,1.399,1.401,1.401,1.4014,1.4014,1.4014]}]]